Aswan, Egypt

10:53 PM EET on August 28, 2016 (GMT +0200)
Aswan International

Weather History for HESN - November, 2012

Change the Weather History Date:

Wednesday, November 7, 2012

  Actual Average Record
Temperature  
Mean Temperature 84 °F -  
Max Temperature 93 °F 80 °F 96 °F (2007)
Min Temperature 76 °F 58 °F 55 °F (2006)
Cooling Degree Days 20    
Growing Degree Days 34 (Base 50)    
Moisture  
Dew Point 51 °F    
Average Humidity 31    
Maximum Humidity 41    
Minimum Humidity 17    
Precipitation  
Precipitation 0.00 in 0.00 in - ()
Sea Level Pressure  
Sea Level Pressure 29.91 in    
Wind  
Wind Speed 9 mph ()    
Max Wind Speed 16 mph    
Max Gust Speed -    
Visibility 6.0 miles    
Events      
Averages and records for this station are not official NWS values.
T = Trace of Precipitation, MM = Missing Value Source: Averaged Metar Reports

Daily Weather History Graph

Daily Weather History Graph

Search for Another Location

Airport or City:

Trip Planner

Search our weather history database for the weather conditions in past years. The results will help you decide how hot, cold, wet, or windy it might be!

Date:

Astronomy

Nov. 07, 2012 Rise Set
Actual Time 5:58 AM EET 5:05 PM EET
Civil Twilight 5:34 AM EET 5:29 PM EET
Nautical Twilight 5:07 AM EET 5:56 PM EET
Astronomical Twilight 4:41 AM EET 6:23 PM EET
Moon No Moon Rise 12:21 PM EET (11/7)
Length of Visible Light 11h 54m
Length of Day
11h 07m
Last Quarter, 46% of the Moon is Illuminated
Nov 7
Last Quarter
Nov 14
New
Nov 20
First Quarter
Nov 28
Full
Dec 6
Last Quarter

Hourly Weather History & Observations

Time (EET) Temp. Heat Index Dew Point Humidity Pressure Visibility Wind Dir Wind Speed Gust Speed Precip Events Conditions
12:00 AM 82.4 °F - 50.0 °F 32% 29.92 in - NNE 8.1 mph - N/A   Clear
1:00 AM 82.4 °F - 50.0 °F 32% 29.89 in - NNE 11.5 mph - N/A   Clear
2:00 AM 78 °F - 51 °F 28% 29.89 in 6 mi NNW 11.5 mph - -  
2:00 AM 78.8 °F - 51.8 °F 39% 29.92 in - NNW 11.5 mph - N/A   Clear
3:00 AM 78.8 °F - 51.8 °F 39% 29.92 in - North 6.9 mph - N/A   Clear
4:00 AM 78.8 °F - 51.8 °F 39% 29.92 in - North 6.9 mph - N/A   Clear
5:00 AM 77.0 °F - 51.8 °F 41% 29.92 in - North 6.9 mph - N/A   Clear
6:00 AM 77.0 °F - 51.8 °F 41% 29.95 in - North 4.6 mph - N/A   Clear
7:00 AM 77.0 °F - 51.8 °F 41% 29.98 in - Calm Calm - N/A   Clear
8:00 AM 80 °F - 52 °F 27% 29.96 in 6 mi North 6.9 mph - -   Partly Cloudy
8:00 AM 80.6 °F - 51.8 °F 37% 29.98 in - North 6.9 mph - N/A   Clear
9:00 AM 84.2 °F - 51.8 °F 33% 30.01 in - NNE 10.4 mph - N/A   Clear
10:00 AM 84.2 °F 82.8 °F 53.6 °F 35% 29.95 in - NNE 16.1 mph - N/A   Clear
11:00 AM 89.6 °F - 51.8 °F 27% 29.95 in - NE 12.7 mph - N/A   Clear
12:00 PM 93.2 °F - 50.0 °F 23% 29.92 in - ENE 11.5 mph - N/A   Clear
1:00 PM 91.4 °F - 51.8 °F 26% 29.89 in - NNE 10.4 mph - N/A   Clear
2:00 PM 91 °F - 52 °F 17% 29.84 in 6 mi North 11.5 mph - -   Partly Cloudy
2:00 PM 91.4 °F - 51.8 °F 26% 29.89 in - North 11.5 mph - N/A   Clear
3:00 PM 91.4 °F - 51.8 °F 26% 29.86 in - North 13.8 mph - N/A   Clear
4:00 PM 91.4 °F - 51.8 °F 26% 29.86 in - North 11.5 mph - N/A   Clear
5:00 PM 89.6 °F - 51.8 °F 27% 29.86 in - North 12.7 mph - N/A   Clear
6:00 PM 86.0 °F - 50.0 °F 29% 29.86 in - North 11.5 mph - N/A   Clear
7:00 PM 82.4 °F - 48.2 °F 30% 29.89 in - North 11.5 mph - N/A   Clear
8:00 PM 81 °F - 48 °F 22% 29.88 in 6 mi North 10.4 mph - -  
8:00 PM 80.6 °F - 48.2 °F 32% 29.89 in - North 10.4 mph - N/A   Clear
9:00 PM 80.6 °F - 48.2 °F 32% 29.92 in - NE 10.4 mph - N/A   Clear
10:00 PM 82.4 °F - 48.2 °F 30% 29.92 in - ENE 11.5 mph - N/A   Clear
11:00 PM 80.6 °F - 46.4 °F 30% 29.92 in - ENE 13.8 mph - N/A   Clear